This is the latest recevied weather packets stored in our database for station/object KY4LEX. If no packets are shown the sender has not sent any weather packets the latest 10 day(s).
| Time | Temp. | Humidity | Pressure | Rain* | Wind** | Luminosity | Snow |
|---|---|---|---|---|---|---|---|
| 1778195392 | 16.11° C | 34% | 1019.7 hPa | 0 mm | - | 31 W/m² | - |
| 1778195089 | 16.11° C | 32% | 1019.8 hPa | 0 mm | - | 31 W/m² | - |
| 1778194784 | 16.11° C | 33% | 1019.8 hPa | 0 mm | - | 33 W/m² | - |
| 1778194480 | 16.67° C | 31% | 1019.8 hPa | 0 mm | - | 34 W/m² | - |
| 1778194177 | 17.22° C | 31% | 1019.6 hPa | 0 mm | - | 53 W/m² | - |
| 1778193872 | 17.22° C | 30% | 1019.7 hPa | 0 mm | - | 136 W/m² | - |
| 1778193570 | 17.78° C | 30% | 1019.6 hPa | 0 mm | - | 150 W/m² | - |
| 1778193266 | 17.22° C | 32% | 1019.7 hPa | 0 mm | - | 164 W/m² | - |
| 1778192963 | 17.78° C | 30% | 1019.6 hPa | 0 mm | - | 176 W/m² | - |
| 1778192660 | 17.78° C | 30% | 1019.6 hPa | 0 mm | - | 189 W/m² | - |
| 1778192356 | 17.78° C | 30% | 1019.9 hPa | 0 mm | - | 204 W/m² | - |
| 1778192053 | 18.33° C | 30% | 1019.7 hPa | 0 mm | - | 218 W/m² | - |
| 1778191748 | 18.89° C | 30% | 1019.6 hPa | 0 mm | - | 230 W/m² | - |
| 1778191447 | 18.89° C | 30% | 1019.9 hPa | 0 mm | - | 244 W/m² | - |
| 1778191143 | 18.33° C | 30% | 1019.6 hPa | 0 mm | - | 257 W/m² | - |
| 1778190840 | 20° C | 29% | 1019.7 hPa | 0 mm | - | 271 W/m² | - |
| 1778190537 | 19.44° C | 30% | 1019.7 hPa | 0 mm | - | 281 W/m² | - |
| 1778190235 | 18.89° C | 28% | 1019.8 hPa | 0 mm | - | 295 W/m² | - |
| 1778189930 | 17.78° C | 30% | 1019.6 hPa | 0 mm | - | 310 W/m² | - |
| 1778189627 | 17.78° C | 30% | 1019.6 hPa | 0 mm | - | 324 W/m² | - |
| 1778189324 | 18.89° C | 28% | 1019.6 hPa | 0 mm | - | 337 W/m² | - |
| 1778189019 | 19.44° C | 31% | 1019.5 hPa | 0 mm | - | 349 W/m² | - |
| 1778188716 | 18.89° C | 32% | 1019.4 hPa | 0 mm | - | 365 W/m² | - |
| 1778188413 | 18.89° C | 27% | 1019.5 hPa | 0 mm | - | 377 W/m² | - |
| 1778188110 | 20° C | 26% | 1019.6 hPa | 0 mm | - | 391 W/m² | - |
* Rain latest hour (hover to see other rain measurements)
** Current wind speed in m/s (hover to see current wind gust speed)